Miscellaneous Local Product
Issued by NWS Hastings, NE

Home | Current Version | Previous Version | Graphics & Text | Print | Product List | Glossary On
Versions: 1 2 3 4 5 6 7 8 9 10 11 12 13 14 15 16 17 18 19 20 21 22 23 24 25 26 27 28 29 30 31 32 33 34 35 36 37 38 39 40 41 42 43 44 45 46 47 48 49 50
000
AXUS43 KGID 202102
MISGRI

GID CWA HOURLY WEATHER ROUNDUP
NATIONAL WEATHER SERVICE HASTINGS NE
300 PM CST SAT DEC 20 2014

NOTE: "FAIR" INDICATES FEW OR NO CLOUDS BELOW 12,000 FEET WITH NO
SIGNIFICANT WEATHER AND/OR OBSTRUCTIONS TO VISIBILITY.

...SOUTH CENTRAL NEBRASKA...

CITY           SKY/WX    TMP DP  RH WIND       PRES   REMARKS
GRAND ISLAND   MOSUNNY   36  32  85 SE6       29.99F FOG     WCI  31
HASTINGS       MOSUNNY   42  34  73 S5        29.97F
KEARNEY        PTSUNNY   39  30  70 S8        29.98R WCI  34
ORD            NOT AVBL
YORK           FOG       32  32 100 CALM      30.02S VSB 3/4
AURORA         CLOUDY    34  34 100 SE5       30.00F FOG     WCI  30
LEXINGTON      PTSUNNY   42  33  69 SW6       29.95F
HOLDREGE       CLOUDY    38  31  74 S7        29.97S WCI  33
HEBRON         MOSUNNY   40  36  87 S6        30.02S

...NEBRASKA PANHANDLE...

CITY           SKY/WX    TMP DP  RH WIND       PRES   REMARKS
CHADRON        MOSUNNY   46  30  53 CALM      29.90F
ALLIANCE       SUNNY     39  30  70 W6        29.91F WCI  35
SCOTTSBLUFF    SUNNY     45  29  53 SW3       29.92F
SIDNEY         MOSUNNY   46  29  51 N5        29.94F

...WESTERN AND NORTH CENTRAL NEBRASKA...

CITY           SKY/WX    TMP DP  RH WIND       PRES   REMARKS
VALENTINE      CLOUDY    40  28  62 W5        29.89F
AINSWORTH      CLOUDY    36  29  76 SW3       29.90F
ONEILL         MOSUNNY   32  31  97 S7        29.95S WCI  25
BROKEN BOW     CLOUDY    42  33  70 SW3       29.92F
IMPERIAL       PTSUNNY   47  28  47 W7        29.96R
NORTH PLATTE   CLOUDY    37  26  64 W8        29.95S WCI  31
MCCOOK         MOSUNNY   47  29  49 CALM      29.95F

...EASTERN NEBRASKA...

CITY           SKY/WX    TMP DP  RH WIND       PRES   REMARKS
NORFOLK        CLOUDY    34  31  88 S6        30.01R FOG     WCI  29
SO SIOUX CITY  CLOUDY    34  30  85 S9        30.05F WCI  27
TEKAMAH        CLOUDY    34  31  88 S8        30.06F FOG     WCI  27
COLUMBUS       CLOUDY    34  28  80 S8        30.04R WCI  27
ALBION         FOG       32  30  94 S7        29.99S VSB 1/2 WCI  25
OMAHA EPPLEY   CLOUDY    34  32  92 S10       30.07F FOG     WCI  26
OFFUTT AFB     CLOUDY    34  32  94 SE7       30.06S FOG     WCI  27
MILLARD        CLOUDY    33  32  94 S6        30.05F FOG     WCI  28
LINCOLN        CLOUDY    36  32  85 S7        30.05F WCI  30
NEBRASKA CITY  CLOUDY    35  34  96 SW6       30.07R FOG     WCI  30
BEATRICE       MOSUNNY   37  33  84 SE6       30.04S WCI  32
FALLS CITY     CLOUDY    35  32  88 SW5       30.09R FOG     WCI  31

...NORTHERN KANSAS...

CITY           SKY/WX    TMP DP  RH WIND       PRES   REMARKS
GOODLAND       MOSUNNY   53  25  33 CALM      29.96S
HILL CITY      MOSUNNY   54  32  43 SW3       29.97F
NORTON         CLEAR     54  28  37 S5        29.96S
PHILLIPSBURG   SUNNY     54  34  47 S3        29.98S
SMITH CENTER   SUNNY     50  36  57 S6        29.99F
BELOIT         SUNNY     45  37  76 SE8       30.01S
HAYS           SUNNY     52  34  50 S8        29.99F
RUSSELL        SUNNY     51  40  65 S13       29.99F
CONCORDIA      MOSUNNY   42  35  76 S6        30.02F
SALINA         SUNNY     52  41  66 S12       30.04F
TOPEKA         PTSUNNY   51  40  65 S10       30.10R



USA.gov is the U.S. government's official web portal to all federal, state and local government web resources and services.